Погода в Слуцке

Погода в Слуцке : погода сейчас, прогноз погоды и архив. Всё, что Вы хотите узнать о погоде в Слуцке!

Хотите узнать прогноз погоды в Слуцке? Тогда Вам сюда: Погода в Слуцке

Поиск расширенной информации на нашем сайте:

Другие новости

Новости СМИ2

Главная страница сайта

Новости сайта

03.07.2017

Напоминаем, что на нашем специализированном сайте Метеоцентр.Азия вы можете получить высокодетализированные автоматические прогнозы погоды по пунктам России, СНГ и мира в авиационном формате (включающие направление и скорость ветра, видимость, явления погоды, количество и форму облачности, нижнюю и верхнюю границу облачности).


Погода в Слуцке - сегодня

Время (UTC), дата Ветер
(°,м/с) 
Видим.   Явления Облачность Т
(°С)
Тd
(°С)
f(%) Тe
(°С)
Pmin
(гПа)
dP
(гПа)
Po
(мм)
O2
(г/м3)
Тmin Tmax R s Состояние
почвы
18 12.11.18 160 (Ю) 9000 м  дымка  10/10 210 м 
[St]
+1.8 +0.7 92 1034.2  0.4  760  304    +3.1       
21 12.11.18 180 (Ю) 4{10}  10 км    10/10 330 м 
[St]
+1.6 +0.2 90 -1  1034.3  0.1  760  305           
00 13.11.18 190 (Ю) 10 км    10/10 400 м 
[St]
+1.2 +0.1 92 -1  1034.2  -0.1  760  305           
03 13.11.18 190 (Ю) 4{10}  12000 м    10/10 450 м 
[St]
+1 -1.3 85 -1  1033.6  -0.6  760  305           
06 13.11.18 200 (Ю) 5{11}  12000 м    10/10 450 м 
[St]
+1 -0.7 88 -2  1032.3  -1.2  759  305  +0.8         
09 13.11.18 180 (Ю) 4{11}  14000 м    10/10 400 м 
[St]
+1.4 -1.1 83 -1  1032.5  0.2  759  304           
12 13.11.18 180 (Ю) 4{11}  15000 м    10/10 450 м 
[St]
+3 -0.5 78 +1  1030.8  -1.6  758  302           
15 13.11.18 200 (Ю) 5{11}  15000 м    9/9 540 м 
[Sc]
+3.6 -0.8 73 +1  1028.7  -2.1  756  301           
18 13.11.18 190 (Ю) 3{10}  15000 м    9/9 600 м 
[Sc]
+2.8 -1.1 75 +1  1027.4  -1.2  755  301    +3.7       
21 13.11.18 200 (Ю) 15000 м    10/0 средняя 
[As op]
+2.7 -0.9 77 +1  1024.9  -2.5  753  301           
00 14.11.18 200 (Ю) 8000 м  дождь  10/10 480 м 
[Ns]
+1.8 -0.1 87 1022.6  -2.3  752  301           
03 14.11.18 210 (ЮЗ) 5000 м  дождь со снегом  10/10 210 м 
[Ns]
+1 +0.5 96 -1  1021.1  -1.5  751  301         
06 14.11.18 230 (ЮЗ) 5000 м  дождь{снег}  10/10 120 м 
[Frnb|Ns]
+2.1 +1.8 98 +1  1019.9  -1.2  750  299  +0.6       
09 14.11.18 260 (З) 3400 м  слаб. дождь{морось}  10/10 60 м 
[Ns]
+3.5 +3.3 99 +3  1019.2  -0.6  749  298           
12 14.11.18 320 (СЗ) 4000 м  дождь{морось}  10/10 180 м 
[Frnb|Ns]
+6.9 +6.2 95 +5  1018.8  -0.1  749  293           
15 14.11.18 020 (С) 4000 м  дождь  10/10 360 м 
[Frnb|Ns]
+5.3 +4.8 97 +4  1021  2.1  751  296         
18 14.11.18 020 (С) 10 км  слаб. дождь  10/10 840 м 
[Ns]
+4.6 +3.9 95 +4  1022.4  1.4  752  297    +7.2  11     
21 14.11.18 060 (СВ) 10 км  слаб. дождь  10/10 720 м 
[Ns]
+4.4 +3.7 95 +4  1023.8  1.3  753  298           
00 15.11.18 060 (СВ) 3000 м  дождь  10/10 300 м 
[Ns]
+1.8 +1.3 96 +1  1025.6  1.5  754  302           
03 15.11.18 040 (СВ) 5000 м  слаб. дождь  10/0 средняя 
[As op]
+0.6 +0.1 96 -1  1026.8  1.2  755  303         
06 15.11.18 060 (СВ) 10 км  {дождь}  9/9 210 м 
[Sc]
+0.6 -0.2 94 -1  1029.1  2.2  756  304  +0.5       
09 15.11.18 080 (В) 10 км    10/10 270 м 
[St]
-0.1 -1.6 90 -4  1031.4  2.1  758  306           
12 15.11.18 080 (В) 11000 м    10/10 330 м 
[St]
+0.2 -1.2 90 -2  1033.3  1.8  759  306           
15 15.11.18 090 (В) 9000 м  дымка  10/10 210 м 
[St]
+0.4 -0.7 92 1035.1  1.9  761  306           
18 15.11.18 110 (В) 7000 м  дымка  10/10 120 м 
[St]
+0.4 -0.2 96 -1  1036.6  1.5  762  307    +1.8       
Время (UTC), дата Ветер
(°,м/с) 
Видим.   Явления Облачность Т
(°С)
Тd
(°С)
f(%) Тe
(°С)
Pmin
(гПа)
dP
(гПа)
Po
(мм)
O2
(г/м3)
Тmin Tmax R s Состояние
почвы

Для получения пояснительной информации подведите курсор к названию столбца.

ПОГОДА в Слуцке - архив

Всё, что Вы хотите узнать о погоде в Слуцке - удобно и подробно!

Выберите нужную дату (начиная с 1 января 2015* года) и нажмите кнопку "Найти".
Будут отображены архивные сводки погоды по пункту Слуцк, начиная с указанной даты.


Отображать данные в формате CSV (для использования в таблицах Excel)


Внимание! Наш архив погоды предназначен исключительно для личного некоммерческого использования в познавательных целях. Если Вам необходимы официальные справки о состоянии погоды (для производственных, юридических, коммерческих и т.п. целей), обращайтесь в органы Росгидромета.

*Примечание: данная дата относится к архиву по метеостанциям СССР (Россия, СНГ, Балтия).
Архив по метеостанциям Зарубежной Европы и Азии (кроме Китая) хранится 10 дней, по другим регионам земного шара (Китай, Африка, Америка, Австралия, Океания) - 1 день.

Слуцк - район местоположения метеостанции


Название, широта, долгота, высота метеостанции:
Слуцк 53°ш. 27.6°д. 162 м над ур. моря [Беларусь]

Дополнительная информация

В oтличие oт бoльшинства пoгoдных сайтoв мы публикуем пoдрoбную метеoинфoрмацию в детальнoм прoфессиoнальнoм фoрмате.

Характеристики температуры и влажнoсти вoздуха измеряются на высoте 2 м в тени вдали oт зданий и деревьев.
Скoрoсть ветра измеряется на высoте 10 м (на урoвне рoста челoвека скoрoсть ветра ниже в 1.5-2 раза). Если метеoстанция нахoдится в гoрoде или в лесу, тo скoрoсть ветра занижена на 2-4 м/с пo сравнению с oткрытым местoм. Скoрoсть ветра над акватoриями крупных рек и oзёр, а также на вершинах хoлмoв на 2-5 м/с выше, чем в oбычных услoвиях.
Атмoсфернoе давление в разных тoчках местнoсти мoжет значительнo oтличаться oт давления на метеoстанции, в зависимoсти oт услoвий рельефа (при пoдъёме на 10 м давление пoнижается примернo на 1 мм рт.ст.).